This is the latest recevied weather packets stored in our database for station/object DK4DO-10. If no packets are shown the sender has not sent any weather packets the latest 10 day(s).
| Time | Temp. | Humidity | Pressure | Rain* | Wind** | Luminosity | Snow |
|---|---|---|---|---|---|---|---|
| 1777889583 | 21.11° C | 37% | 1007.7 hPa | - | - | - | - |
| 1777888983 | 20.56° C | 37% | 1007.7 hPa | - | - | - | - |
| 1777888382 | 20° C | 37% | 1007.8 hPa | - | - | - | - |
| 1777887782 | 20° C | 38% | 1007.9 hPa | - | - | - | - |
| 1777887182 | 20° C | 38% | 1007.8 hPa | - | - | - | - |
| 1777886582 | 20° C | 39% | 1007.9 hPa | - | - | - | - |
| 1777885981 | 20° C | 38% | 1007.9 hPa | - | - | - | - |
| 1777885381 | 20° C | 40% | 1007.8 hPa | - | - | - | - |
| 1777884781 | 19.44° C | 38% | 1008 hPa | - | - | - | - |
| 1777884181 | 20.56° C | 39% | 1008 hPa | - | - | - | - |
| 1777883581 | 20° C | 40% | 1007.9 hPa | - | - | - | - |
| 1777882980 | 19.44° C | 40% | 1007.9 hPa | - | - | - | - |
| 1777882380 | 20° C | 40% | 1007.9 hPa | - | - | - | - |
| 1777881780 | 20° C | 40% | 1007.9 hPa | - | - | - | - |
| 1777881180 | 20° C | 39% | 1007.9 hPa | - | - | - | - |
| 1777880580 | 19.44° C | 40% | 1007.8 hPa | - | - | - | - |
| 1777879979 | 19.44° C | 40% | 1007.8 hPa | - | - | - | - |
| 1777879379 | 19.44° C | 41% | 1007.7 hPa | - | - | - | - |
| 1777878779 | 19.44° C | 41% | 1007.7 hPa | - | - | - | - |
| 1777878178 | 18.89° C | 42% | 1007.6 hPa | - | - | - | - |
| 1777877578 | 18.33° C | 44% | 1007.5 hPa | - | - | - | - |
| 1777876978 | 17.22° C | 46% | 1007.7 hPa | - | - | - | - |
| 1777876378 | 16.11° C | 49% | 1007.7 hPa | - | - | - | - |
| 1777875778 | 15.56° C | 49% | 1007.5 hPa | - | - | - | - |
| 1777875187 | 16.67° C | 45% | 1007.3 hPa | - | - | - | - |
* Rain since midnight (hover to see other rain measurements)
** Current wind speed in m/s (hover to see current wind gust speed)